Location: Claflin County Park
(44.8478°N, 87.5507°W)
Time: 03:34:04
(UTC+00:00)

USA 234 - Pass Details

Date: 15 March 2026
Orbit: 1102 x 1106 km, 123.0° (Epoch: 4 January)

Event Time Altitude Azimuth Distance (km) Brightness Sun altitude
Exits shadow 01:58:52 26° 63° (ENE) 2,020 4.3 -22.3°
Maximum altitude 02:01:43 38° 17° (NNE) 1,622 4.1 -22.8°
Drops below altitude 10° 02:07:39 10° 313° (NW) 2,970 6.5 -23.8°
Sets 02:10:18 0° 306° (NW) 3,930 7.5 -24.2°
